Radiation Dose at Monitoring Post of Fukushima Daini Nuclear Power Station
Date,Time,MP-1(microSv/h),MP-2(microSv/h),MP-3(microSv/h),MP-4(microSv/h),MP-5(microSv/h),MP-6(microSv/h),MP-7(microSv/h),Wind Direction,Wind Velocity(m/s),Rain
2022/03/11,00:00,0.161,0.149,0.237,0.229,0.227,0.128,0.082,south,4.4,No
2022/03/11,00:10,0.163,0.149,0.237,0.228,0.227,0.128,0.081,south,4.1,No
2022/03/11,00:20,0.162,0.147,0.237,0.227,0.226,0.129,0.081,south,5.2,No
2022/03/11,00:30,0.162,0.149,0.237,0.227,0.227,0.129,0.082,south,5.7,No
2022/03/11,00:40,0.162,0.149,0.237,0.227,0.226,0.128,0.082,south,5.9,No
2022/03/11,00:50,0.161,0.148,0.236,0.227,0.227,0.127,0.081,south,5.9,No
2022/03/11,01:00,0.162,0.147,0.236,0.228,0.226,0.128,0.081,south,6.6,No
2022/03/11,01:10,0.162,0.149,0.236,0.228,0.227,0.128,0.081,south,5.2,No
2022/03/11,01:20,0.162,0.148,0.236,0.228,0.227,0.128,0.082,south,4.8,No
2022/03/11,01:30,0.163,0.149,0.236,0.228,0.227,0.129,0.082,south-southwest,3.8,No
2022/03/11,01:40,0.163,0.150,0.237,0.227,0.227,0.128,0.082,south,2.2,No
2022/03/11,01:50,0.161,0.148,0.237,0.228,0.226,0.128,0.082,south,2.5,No
2022/03/11,02:00,0.163,0.148,0.237,0.228,0.227,0.129,0.082,south-southwest,4.0,No
2022/03/11,02:10,0.163,0.149,0.235,0.228,0.227,0.128,0.082,south-southwest,4.1,No
2022/03/11,02:20,0.162,0.148,0.236,0.228,0.228,0.128,0.081,south-southwest,3.7,No
2022/03/11,02:30,0.161,0.149,0.237,0.227,0.227,0.128,0.082,south-southwest,4.3,No
2022/03/11,02:40,0.162,0.148,0.236,0.228,0.225,0.129,0.082,south-southwest,4.4,No
2022/03/11,02:50,0.163,0.148,0.236,0.227,0.225,0.128,0.082,south-southwest,5.7,No
2022/03/11,03:00,0.162,0.148,0.236,0.228,0.226,0.128,0.082,south-southwest,6.4,No
2022/03/11,03:10,0.163,0.149,0.236,0.228,0.226,0.127,0.081,south-southwest,6.8,No
2022/03/11,03:20,0.162,0.149,0.236,0.228,0.227,0.129,0.082,south,7.0,No
2022/03/11,03:30,0.162,0.149,0.235,0.228,0.226,0.128,0.082,south,6.8,No
2022/03/11,03:40,0.163,0.149,0.236,0.227,0.226,0.129,0.081,south,5.9,No
2022/03/11,03:50,0.162,0.148,0.235,0.227,0.226,0.129,0.081,south-southwest,4.4,No
2022/03/11,04:00,0.162,0.147,0.236,0.227,0.226,0.128,0.081,south-southwest,3.3,No
2022/03/11,04:10,0.161,0.148,0.236,0.228,0.227,0.128,0.082,south-southwest,3.7,No
2022/03/11,04:20,0.162,0.148,0.236,0.227,0.227,0.128,0.082,south-southwest,4.1,No
2022/03/11,04:30,0.162,0.148,0.235,0.227,0.227,0.128,0.081,south-southwest,5.9,No
2022/03/11,04:40,0.162,0.147,0.237,0.227,0.227,0.127,0.081,south-southwest,6.8,No
2022/03/11,04:50,0.160,0.148,0.235,0.227,0.226,0.128,0.082,south-southwest,6.1,No
2022/03/11,05:00,0.162,0.148,0.236,0.227,0.226,0.128,0.082,south-southwest,7.2,No
2022/03/11,05:10,0.162,0.148,0.237,0.226,0.227,0.128,0.081,south-southwest,6.6,No
2022/03/11,05:20,0.162,0.148,0.235,0.227,0.226,0.128,0.082,south-southwest,5.4,No
2022/03/11,05:30,0.162,0.148,0.235,0.228,0.227,0.129,0.081,south-southwest,6.1,No
2022/03/11,05:40,0.162,0.148,0.236,0.227,0.225,0.128,0.081,south-southwest,5.5,No
2022/03/11,05:50,0.162,0.148,0.235,0.226,0.226,0.128,0.081,south-southwest,4.4,No
2022/03/11,06:00,0.161,0.148,0.235,0.226,0.226,0.128,0.081,south-southwest,3.5,No
2022/03/11,06:10,0.162,0.148,0.236,0.226,0.226,0.128,0.081,south-southwest,4.6,No
2022/03/11,06:20,0.163,0.148,0.235,0.227,0.226,0.129,0.081,south-southwest,4.1,No
2022/03/11,06:30,0.162,0.147,0.236,0.225,0.225,0.128,0.081,south-southwest,4.8,No
2022/03/11,06:40,0.161,0.148,0.234,0.227,0.225,0.127,0.081,south-southwest,6.4,No
2022/03/11,06:50,0.162,0.149,0.235,0.227,0.225,0.128,0.081,south-southwest,6.9,No
2022/03/11,07:00,0.161,0.147,0.235,0.226,0.226,0.128,0.082,south-southwest,6.2,No
2022/03/11,07:10,0.162,0.147,0.235,0.227,0.225,0.128,0.081,south-southwest,6.0,No
2022/03/11,07:20,0.161,0.147,0.235,0.226,0.226,0.128,0.080,south-southwest,7.0,No
2022/03/11,07:30,0.161,0.148,0.234,0.227,0.226,0.127,0.080,south,7.0,No
2022/03/11,07:40,0.160,0.147,0.235,0.226,0.225,0.127,0.081,south-southwest,6.5,No
2022/03/11,07:50,0.161,0.147,0.235,0.226,0.226,0.128,0.081,south,6.5,No
2022/03/11,08:00,0.163,0.148,0.235,0.226,0.225,0.127,0.081,south,6.5,No
2022/03/11,08:10,0.161,0.148,0.234,0.227,0.226,0.127,0.081,south,7.4,No
2022/03/11,08:20,0.161,0.147,0.234,0.226,0.224,0.127,0.080,south,6.1,No
2022/03/11,08:30,0.162,0.147,0.234,0.225,0.225,0.128,0.081,south-southeast,6.2,No
2022/03/11,08:40,0.161,0.146,0.233,0.226,0.225,0.128,0.081,south,7.5,No
2022/03/11,08:50,0.161,0.147,0.236,0.225,0.226,0.128,0.081,south,7.0,No
2022/03/11,09:00,0.161,0.147,0.235,0.225,0.228,0.128,0.080,south,6.0,No
2022/03/11,09:10,0.161,0.146,0.233,0.227,0.225,0.128,0.081,south,6.8,No
2022/03/11,09:20,0.161,0.146,0.235,0.225,0.226,0.127,0.080,south,6.5,No
2022/03/11,09:30,0.160,0.147,0.233,0.226,0.227,0.126,0.081,south-southeast,6.8,No
2022/03/11,09:40,0.161,0.147,0.236,0.226,0.225,0.127,0.081,south-southeast,7.3,No
2022/03/11,09:50,0.160,0.148,0.234,0.227,0.226,0.128,0.080,south-southeast,7.1,No
2022/03/11,10:00,0.161,0.147,0.234,0.225,0.226,0.127,0.081,south-southeast,6.9,No
2022/03/11,10:10,0.160,0.147,0.235,0.227,0.226,0.127,0.080,south,6.9,No
2022/03/11,10:20,0.161,0.147,0.233,0.225,0.227,0.127,0.080,south-southeast,7.8,No
2022/03/11,10:30,0.161,0.148,0.236,0.227,0.226,0.128,0.081,south-southeast,8.0,No
2022/03/11,10:40,0.160,0.147,0.234,0.226,0.227,0.127,0.082,south-southeast,9.0,No
2022/03/11,10:50,0.162,0.148,0.234,0.227,0.225,0.128,0.081,south-southeast,7.9,No
2022/03/11,11:00,0.160,0.148,0.234,0.225,0.226,0.127,0.080,south-southeast,9.0,No
2022/03/11,11:10,0.161,0.147,0.234,0.226,0.225,0.128,0.081,south-southeast,10.5,No
2022/03/11,11:20,0.160,0.147,0.234,0.225,0.226,0.126,0.080,south-southeast,9.7,No
2022/03/11,11:30,0.162,0.147,0.234,0.226,0.224,0.128,0.080,south-southeast,9.9,No
2022/03/11,11:40,0.159,0.146,0.234,0.226,0.228,0.127,0.080,south-southeast,10.8,No
2022/03/11,11:50,0.161,0.147,0.233,0.227,0.224,0.128,0.081,south-southeast,9.9,No
2022/03/11,12:00,0.161,0.148,0.234,0.226,0.226,0.127,0.081,south-southeast,9.5,No
2022/03/11,12:10,0.160,0.146,0.234,0.226,0.224,0.127,0.081,south-southeast,10.6,No
2022/03/11,12:20,0.161,0.147,0.235,0.225,0.226,0.127,0.080,south-southeast,10.9,No
2022/03/11,12:30,0.161,0.146,0.234,0.227,0.226,0.129,0.080,south-southeast,9.4,No
2022/03/11,12:40,0.160,0.148,0.233,0.225,0.226,0.127,0.081,south,11.2,No
2022/03/11,12:50,0.161,0.147,0.237,0.227,0.225,0.128,0.081,south-southeast,10.5,No
2022/03/11,13:00,0.159,0.146,0.234,0.226,0.226,0.127,0.081,south,10.8,No
2022/03/11,13:10,0.161,0.147,0.236,0.226,0.227,0.128,0.080,south-southeast,10.1,No
2022/03/11,13:20,0.161,0.147,0.233,0.226,0.224,0.126,0.081,south-southeast,9.6,No
2022/03/11,13:30,0.159,0.149,0.235,0.226,0.227,0.127,0.081,south-southeast,9.8,No
2022/03/11,13:40,0.162,0.147,0.234,0.226,0.224,0.128,0.080,south,10.4,No
2022/03/11,13:50,0.160,0.148,0.234,0.226,0.224,0.128,0.080,south,10.4,No
2022/03/11,14:00,0.160,0.145,0.235,0.226,0.226,0.128,0.081,south,10.0,No
2022/03/11,14:10,0.162,0.148,0.235,0.226,0.225,0.127,0.081,south-southeast,9.8,No
2022/03/11,14:20,0.160,0.147,0.235,0.227,0.226,0.128,0.080,south,10.5,No
2022/03/11,14:30,0.162,0.147,0.234,0.226,0.223,0.128,0.081,south-southeast,10.8,No
2022/03/11,14:40,0.161,0.147,0.236,0.225,0.227,0.127,0.080,south,9.5,No
2022/03/11,14:50,0.161,0.148,0.233,0.226,0.225,0.127,0.080,south,9.2,No
2022/03/11,15:00,0.162,0.146,0.235,0.226,0.226,0.127,0.080,south,9.0,No
2022/03/11,15:10,0.159,0.148,0.235,0.227,0.225,0.127,0.080,south,8.6,No
2022/03/11,15:20,0.161,0.147,0.236,0.227,0.226,0.127,0.081,south,9.0,No
2022/03/11,15:30,0.160,0.147,0.236,0.226,0.226,0.128,0.082,south,8.6,No
2022/03/11,15:40,0.162,0.148,0.234,0.228,0.228,0.127,0.081,south,8.0,No
2022/03/11,15:50,0.160,0.147,0.236,0.227,0.227,0.127,0.081,south,9.1,No
2022/03/11,16:00,0.162,0.148,0.235,0.226,0.228,0.128,0.081,south,8.7,No
2022/03/11,16:10,0.161,0.147,0.237,0.226,0.226,0.128,0.081,south,7.3,No
2022/03/11,16:20,0.162,0.148,0.235,0.227,0.228,0.127,0.080,south,7.4,No
2022/03/11,16:30,0.161,0.148,0.237,0.227,0.226,0.128,0.081,south,6.9,No
2022/03/11,16:40,0.163,0.148,0.234,0.226,0.228,0.128,0.081,south-southwest,6.1,No
2022/03/11,16:50,0.162,0.148,0.235,0.227,0.225,0.128,0.081,south-southwest,5.7,No
2022/03/11,17:00,0.162,0.148,0.236,0.226,0.227,0.128,0.081,south-southwest,6.5,No
2022/03/11,17:10,0.161,0.147,0.234,0.226,0.226,0.128,0.081,south-southwest,6.6,No
2022/03/11,17:20,0.162,0.148,0.234,0.227,0.228,0.127,0.081,south-southwest,7.1,No
2022/03/11,17:30,0.161,0.147,0.235,0.226,0.226,0.128,0.082,south-southwest,6.8,No
2022/03/11,17:40,0.161,0.148,0.235,0.227,0.226,0.127,0.081,south-southwest,5.7,No
2022/03/11,17:50,0.163,0.148,0.235,0.227,0.227,0.128,0.081,south-southwest,5.8,No
2022/03/11,18:00,0.161,0.149,0.236,0.226,0.226,0.128,0.081,south-southwest,4.0,No
2022/03/11,18:10,0.162,0.148,0.236,0.227,0.228,0.127,0.081,south-southwest,4.1,No
2022/03/11,18:20,0.161,0.148,0.235,0.227,0.227,0.128,0.082,south-southwest,3.8,No
2022/03/11,18:30,0.161,0.148,0.237,0.227,0.226,0.128,0.081,southwest,4.3,No
2022/03/11,18:40,0.161,0.148,0.237,0.227,0.227,0.129,0.081,southwest,5.2,No
2022/03/11,18:50,0.161,0.148,0.236,0.226,0.227,0.127,0.082,southwest,5.0,No
2022/03/11,19:00,0.162,0.148,0.235,0.226,0.227,0.128,0.081,southwest,4.1,No
2022/03/11,19:10,0.162,0.147,0.236,0.228,0.226,0.127,0.082,west-southwest,3.3,No
2022/03/11,19:20,0.161,0.148,0.237,0.227,0.227,0.128,0.081,west-southwest,2.7,No
2022/03/11,19:30,0.162,0.149,0.235,0.228,0.228,0.128,0.081,west,3.0,No
2022/03/11,19:40,0.162,0.149,0.234,0.228,0.226,0.129,0.081,west,4.7,No
2022/03/11,19:50,0.161,0.148,0.236,0.227,0.227,0.128,0.081,west-northwest,4.7,No
2022/03/11,20:00,0.163,0.149,0.236,0.226,0.226,0.128,0.081,west-northwest,4.7,No
2022/03/11,20:10,0.163,0.147,0.236,0.227,0.227,0.128,0.081,west,4.4,No
2022/03/11,20:20,0.161,0.147,0.235,0.227,0.228,0.128,0.082,west,3.5,No
2022/03/11,20:30,0.162,0.148,0.235,0.226,0.226,0.128,0.081,west,3.5,No
2022/03/11,20:40,0.162,0.148,0.236,0.227,0.228,0.129,0.082,west,2.7,No
2022/03/11,20:50,0.161,0.147,0.235,0.226,0.228,0.128,0.081,west,2.9,No
2022/03/11,21:00,0.163,0.149,0.236,0.227,0.227,0.128,0.082,west-northwest,2.1,No
2022/03/11,21:10,0.161,0.147,0.237,0.227,0.228,0.129,0.081,west,1.6,No
2022/03/11,21:20,0.162,0.150,0.237,0.227,0.227,0.129,0.082,west,3.2,No
2022/03/11,21:30,0.162,0.149,0.237,0.228,0.228,0.129,0.083,west-northwest,3.5,No
2022/03/11,21:40,0.162,0.148,0.235,0.227,0.228,0.128,0.082,west-northwest,2.9,No
2022/03/11,21:50,0.163,0.148,0.236,0.226,0.227,0.129,0.081,northwest,2.4,No
2022/03/11,22:00,0.162,0.149,0.236,0.227,0.227,0.129,0.082,west-northwest,1.4,No
2022/03/11,22:10,0.163,0.149,0.236,0.227,0.226,0.128,0.082,west,4.1,No
2022/03/11,22:20,0.163,0.148,0.235,0.227,0.227,0.128,0.081,west,11.3,No
2022/03/11,22:30,0.162,0.148,0.235,0.227,0.226,0.128,0.081,west,11.8,No
2022/03/11,22:40,0.161,0.149,0.236,0.227,0.226,0.128,0.081,west-northwest,11.8,No
2022/03/11,22:50,0.163,0.148,0.236,0.228,0.228,0.127,0.081,west-northwest,11.0,No
2022/03/11,23:00,0.161,0.148,0.236,0.229,0.225,0.128,0.080,west,11.1,No
2022/03/11,23:10,0.163,0.147,0.235,0.226,0.227,0.127,0.081,west,8.7,No
2022/03/11,23:20,0.163,0.148,0.236,0.228,0.227,0.128,0.081,west-southwest,5.8,No
2022/03/11,23:30,0.162,0.148,0.237,0.227,0.227,0.126,0.081,west-southwest,3.8,No
2022/03/11,23:40,0.162,0.148,0.235,0.226,0.227,0.128,0.081,southwest,2.2,No
2022/03/11,23:50,0.162,0.149,0.235,0.227,0.226,0.128,0.081,south-southwest,2.7,No
